M I D A S
Marine Information and Data Acquisition System
Tripno 1732 of the Zeeleeuw from 2009-07-08 06:33:02 to 2009-07-08 17:29:49
Back to CruiseResearch ActivitiesStationsMapUnderway DataData graphs

EquipmentUnitsComment
TimeDGPSUTC
LatitudeDGPSDM.mWGS84
LongitudeDGPSDM.mWGS84
HeadingGyrodeg 
SOGDGPSknotsSpeed over ground
COGDGPSdegCourse over ground
DepthEcho soundermeters200 kHz
Missing or incorrect values are displayed as -999
Navigation data collected by the RV Zeeleeuw from 2009-07-08 06:36:07 to 2009-07-08 17:39:20
                                                                                    Next 1000 lines
Time Latitude Longitude Heading SOG COG Depth
2009-07-08 06:36:17 51°13.663 2°55.955 111.9 0.9 293 5
2009-07-08 06:36:22 51°13.664 2°55.952 111.9 1.3 289 5
2009-07-08 06:36:27 51°13.665 2°55.949 111.9 1.8 295 5
2009-07-08 06:36:32 51°13.666 2°55.945 112.1 1.9 291 -999
2009-07-08 06:36:38 51°13.668 2°55.94 112.5 2.2 294 -999
2009-07-08 06:36:44 51°13.669 2°55.934 112.8 2.4 294 -999
2009-07-08 06:36:49 51°13.671 2°55.929 113 2.6 296 -999
2009-07-08 06:36:55 51°13.672 2°55.922 113.1 2.8 294 -999
2009-07-08 06:37:00 51°13.674 2°55.916 112.8 3 295 -999
2009-07-08 06:37:05 51°13.676 2°55.909 112.3 3.1 293 -999
2009-07-08 06:37:11 51°13.678 2°55.901 111.5 3.3 293 -999
2009-07-08 06:37:16 51°13.679 2°55.894 110.5 3.4 290 -999
2009-07-08 06:37:20 51°13.68 2°55.888 109.3 3.5 290 -999
2009-07-08 06:37:25 51°13.682 2°55.881 108.2 3.6 287 -999
2009-07-08 06:37:31 51°13.684 2°55.872 107.2 3.7 287 -999
2009-07-08 06:37:36 51°13.685 2°55.864 106.3 3.6 285 -999
2009-07-08 06:37:41 51°13.686 2°55.856 105.5 3.7 285 -999
2009-07-08 06:37:46 51°13.688 2°55.848 104.7 3.6 285 -999
2009-07-08 06:37:51 51°13.689 2°55.841 104 3.7 284 -999
2009-07-08 06:37:56 51°13.69 2°55.833 103.6 3.7 285 -999
2009-07-08 06:38:00 51°13.691 2°55.827 103.2 3.5 283 -999
2009-07-08 06:38:05 51°13.692 2°55.819 102.7 3.5 284 -999
2009-07-08 06:38:11 51°13.693 2°55.811 102.4 3.3 283 -999
2009-07-08 06:38:16 51°13.694 2°55.804 101.9 3.1 285 -999
2009-07-08 06:38:20 51°13.695 2°55.799 101.6 3.1 283 -999
2009-07-08 06:38:25 51°13.696 2°55.792 101.1 2.9 285 -999
2009-07-08 06:38:31 51°13.697 2°55.785 100.4 2.8 283 -999
2009-07-08 06:38:36 51°13.698 2°55.78 99.6 2.7 283 -999
2009-07-08 06:38:40 51°13.699 2°55.775 98.9 2.6 282 4.5
2009-07-08 06:38:45 51°13.7 2°55.77 98.5 2.4 285 4.7
2009-07-08 06:38:50 51°13.701 2°55.766 97.8 1.9 284 4.7
2009-07-08 06:38:56 51°13.701 2°55.764 96.8 1.1 294 -999
2009-07-08 06:39:00 51°13.702 2°55.763 93.2 0.5 322 -999
2009-07-08 06:39:06 51°13.702 2°55.764 86.4 0.5 8 -999
2009-07-08 06:39:11 51°13.703 2°55.764 79.8 0.4 30 -999
2009-07-08 06:39:16 51°13.704 2°55.764 75 0.5 16 4.6
2009-07-08 06:39:20 51°13.704 2°55.764 70.5 0.3 347 -999
2009-07-08 06:39:25 51°13.704 2°55.763 67.3 0.4 274 -999
2009-07-08 06:39:31 51°13.703 2°55.761 63.8 0.7 261 -999
2009-07-08 06:39:36 51°13.703 2°55.759 60.2 1 250 -999
2009-07-08 06:39:41 51°13.702 2°55.756 57.5 1.3 247 -999
2009-07-08 06:39:46 51°13.701 2°55.753 55.2 1.5 243 -999
2009-07-08 06:39:51 51°13.7 2°55.75 53 1.5 242 -999
2009-07-08 06:39:56 51°13.699 2°55.748 51.1 1.4 240 -999
2009-07-08 06:40:00 51°13.698 2°55.745 49.5 1.4 241 -999
2009-07-08 06:40:06 51°13.698 2°55.743 48.6 1 244 -999
2009-07-08 06:40:11 51°13.698 2°55.742 47.1 0.4 269 -999
2009-07-08 06:40:16 51°13.699 2°55.742 42.9 0.5 350 -999
2009-07-08 06:40:20 51°13.7 2°55.743 37.5 1 12 -999
2009-07-08 06:40:25 51°13.702 2°55.744 31.1 1.6 14 -999
2009-07-08 06:40:31 51°13.706 2°55.744 22.9 2.2 8 -999
2009-07-08 06:40:35 51°13.708 2°55.744 17.8 2.4 2 4.7
2009-07-08 06:40:40 51°13.712 2°55.744 9.4 2.7 354 -999
2009-07-08 06:40:45 51°13.716 2°55.743 0.3 3 349 -999
2009-07-08 06:40:51 51°13.721 2°55.74 350.9 3.3 342 -999
2009-07-08 06:40:56 51°13.726 2°55.737 344.5 3.6 337 -999
2009-07-08 06:41:00 51°13.73 2°55.733 338.6 3.9 334 -999
2009-07-08 06:41:05 51°13.735 2°55.729 334.7 4.5 332 -999
2009-07-08 06:41:10 51°13.741 2°55.724 332.9 4.8 331 -999
2009-07-08 06:41:15 51°13.747 2°55.718 332.1 5.1 330 10.8
2009-07-08 06:41:20 51°13.754 2°55.713 331.8 5.4 331 10.1
2009-07-08 06:41:25 51°13.761 2°55.706 331.8 5.6 331 10.6
2009-07-08 06:41:29 51°13.766 2°55.701 331.8 5.8 329 10.6
2009-07-08 06:41:35 51°13.775 2°55.693 331.2 6 329 10.5
2009-07-08 06:41:40 51°13.782 2°55.686 331.1 6.2 329 10.2
2009-07-08 06:41:44 51°13.788 2°55.68 331.1 6.3 329 10.5
2009-07-08 06:41:49 51°13.796 2°55.672 331.1 6.5 329 10.5
2009-07-08 06:41:54 51°13.803 2°55.665 331.2 6.6 329 10.4
2009-07-08 06:41:59 51°13.812 2°55.657 331.8 6.8 330 10.4
2009-07-08 06:42:04 51°13.82 2°55.65 332.7 6.9 331 10.4
2009-07-08 06:42:08 51°13.827 2°55.644 333.2 7 331 10.4
2009-07-08 06:42:13 51°13.836 2°55.636 333.3 7.2 331 9.8
2009-07-08 06:42:18 51°13.844 2°55.629 333.5 7.3 333 10
2009-07-08 06:42:23 51°13.854 2°55.621 334.4 7.4 334 10.1
2009-07-08 06:42:28 51°13.863 2°55.614 334.9 7.5 333 9.9
2009-07-08 06:42:33 51°13.872 2°55.607 335 7.6 335 9.9
2009-07-08 06:42:37 51°13.88 2°55.601 335.6 7.7 334 10.2
2009-07-08 06:42:43 51°13.892 2°55.592 335.9 7.7 335 -999
2009-07-08 06:42:48 51°13.901 2°55.585 335.8 7.8 334 11.2
2009-07-08 06:42:53 51°13.911 2°55.578 335.7 7.8 336 11.2
2009-07-08 06:42:59 51°13.923 2°55.569 335.7 7.8 334 -999
2009-07-08 06:43:04 51°13.933 2°55.562 335.8 7.8 335 -999
2009-07-08 06:43:10 51°13.944 2°55.552 335.7 7.8 333 -999
2009-07-08 06:43:16 51°13.956 2°55.543 335.3 7.8 334 -999
2009-07-08 06:43:20 51°13.964 2°55.537 335.4 7.8 334 11.1
2009-07-08 06:43:25 51°13.973 2°55.53 336.6 7.8 335 11.3
2009-07-08 06:43:30 51°13.983 2°55.522 337.4 7.8 333 10.9
2009-07-08 06:43:35 51°13.993 2°55.514 336.2 7.8 332 10.8
2009-07-08 06:43:40 51°14.002 2°55.506 335.5 7.8 333 10.9
2009-07-08 06:43:45 51°14.012 2°55.499 335.4 7.8 333 10.5
2009-07-08 06:43:49 51°14.02 2°55.493 336.1 7.8 336 10.3
2009-07-08 06:43:54 51°14.03 2°55.486 337.9 7.8 335 10.5
2009-07-08 06:44:00 51°14.042 2°55.477 338.6 7.9 334 10
2009-07-08 06:44:04 51°14.049 2°55.47 337.9 7.9 333 10.3
2009-07-08 06:44:09 51°14.059 2°55.462 336.3 7.9 333 10.8
2009-07-08 06:44:14 51°14.069 2°55.454 335.7 8 333 10.3
2009-07-08 06:44:19 51°14.079 2°55.446 335.7 8 333 10.3
2009-07-08 06:44:24 51°14.089 2°55.438 335.7 8 332 10
2009-07-08 06:44:28 51°14.096 2°55.431 335.4 8 332 10.1
2009-07-08 06:44:33 51°14.106 2°55.423 334.6 8 332 9.8
2009-07-08 06:44:38 51°14.116 2°55.415 334 8 332 10.3
2009-07-08 06:44:43 51°14.126 2°55.407 334.3 8 332 10.9
2009-07-08 06:44:48 51°14.136 2°55.398 334.6 8 332 10.8
2009-07-08 06:44:53 51°14.145 2°55.389 334.1 8 331 11
2009-07-08 06:44:58 51°14.155 2°55.38 333 8 330 11.1
2009-07-08 06:45:03 51°14.164 2°55.371 331.6 8 329 11.2
2009-07-08 06:45:08 51°14.174 2°55.362 330.9 8 327 11.1
2009-07-08 06:45:12 51°14.181 2°55.354 329.8 8 326 11
2009-07-08 06:45:17 51°14.19 2°55.344 328.3 8 325 11.1
2009-07-08 06:45:22 51°14.199 2°55.333 327.4 8 325 10.7
2009-07-08 06:45:27 51°14.208 2°55.323 327 8.1 324 11
2009-07-08 06:45:32 51°14.217 2°55.312 326.4 8.2 323 11.1
2009-07-08 06:45:36 51°14.225 2°55.303 325.3 8.2 322 11
2009-07-08 06:45:42 51°14.235 2°55.289 324.1 8.3 320 10.3
2009-07-08 06:45:46 51°14.242 2°55.279 322.9 8.4 319 10.4
2009-07-08 06:45:52 51°14.253 2°55.264 321.5 8.5 318 10.5
2009-07-08 06:45:56 51°14.26 2°55.254 320.2 8.5 317 10.1
2009-07-08 06:46:02 51°14.27 2°55.238 319.1 8.6 316 10
2009-07-08 06:46:06 51°14.277 2°55.227 317.8 8.7 314 10.3
2009-07-08 06:46:12 51°14.287 2°55.211 316.1 8.8 313 10.2
2009-07-08 06:46:16 51°14.294 2°55.199 314.4 8.8 312 10.1
2009-07-08 06:46:22 51°14.303 2°55.181 313.5 8.8 311 10.3
2009-07-08 06:46:27 51°14.311 2°55.166 312.9 8.9 311 10
2009-07-08 06:46:32 51°14.319 2°55.151 312.2 9 310 10.2
2009-07-08 06:46:36 51°14.325 2°55.139 312 9.1 311 10.2
2009-07-08 06:46:42 51°14.336 2°55.121 312.6 9.1 312 10.4
2009-07-08 06:46:47 51°14.344 2°55.106 313.7 9.2 313 10
2009-07-08 06:46:52 51°14.352 2°55.09 313.4 9.2 310 10.2
2009-07-08 06:46:56 51°14.359 2°55.078 312.9 9.3 311 10.6
2009-07-08 06:47:02 51°14.369 2°55.059 312.3 9.3 309 9.5
2009-07-08 06:47:07 51°14.377 2°55.043 311.5 9.2 309 10
2009-07-08 06:47:12 51°14.385 2°55.026 310 9.1 307 9.5
2009-07-08 06:47:17 51°14.392 2°55.01 309 9.2 307 9.3
2009-07-08 06:47:21 51°14.398 2°54.997 308.9 9.2 307 10.1
2009-07-08 06:47:27 51°14.408 2°54.978 310.4 9.2 308 9.7
2009-07-08 06:47:32 51°14.416 2°54.962 312.1 9.3 309 9.7
2009-07-08 06:47:37 51°14.424 2°54.946 313.5 9.4 311 9.7
2009-07-08 06:47:41 51°14.431 2°54.934 315.8 9.5 313 9.8
2009-07-08 06:47:46 51°14.441 2°54.92 319.7 9.6 318 9.8
2009-07-08 06:47:52 51°14.453 2°54.902 322.8 9.8 315 9.7
2009-07-08 06:47:56 51°14.461 2°54.89 323.5 9.9 314 9.8
2009-07-08 06:48:02 51°14.473 2°54.871 322.5 10.1 314 9.9
2009-07-08 06:48:06 51°14.481 2°54.858 323.4 10.2 317 9.9
2009-07-08 06:48:12 51°14.494 2°54.84 326.7 10.4 321 9.5
2009-07-08 06:48:17 51°14.506 2°54.826 330.3 10.5 323 9.5
2009-07-08 06:48:22 51°14.517 2°54.812 331.8 10.7 324 9.5
2009-07-08 06:48:27 51°14.529 2°54.798 331.7 10.8 323 9.4
2009-07-08 06:48:32 51°14.541 2°54.783 331 10.8 324 9.3
2009-07-08 06:48:37 51°14.554 2°54.77 332.4 10.9 327 9.4
2009-07-08 06:48:42 51°14.566 2°54.755 333.1 11 324 9.4
2009-07-08 06:48:47 51°14.579 2°54.742 332.7 11 326 9.2
2009-07-08 06:48:52 51°14.592 2°54.728 333.8 11 326 9.2
2009-07-08 06:48:56 51°14.602 2°54.718 334 11 327 9
2009-07-08 06:49:02 51°14.617 2°54.701 334.9 11.1 326 9
2009-07-08 06:49:07 51°14.63 2°54.688 334.6 11.1 327 9
2009-07-08 06:49:12 51°14.643 2°54.674 334.9 11.2 327 9.1
2009-07-08 06:49:16 51°14.654 2°54.663 335.3 11.2 327 8.9
2009-07-08 06:49:21 51°14.667 2°54.651 335.6 11.2 328 9.3
2009-07-08 06:49:27 51°14.682 2°54.635 336.3 11.2 329 8.9
2009-07-08 06:49:32 51°14.696 2°54.622 336.6 11.2 329 9.3
2009-07-08 06:49:36 51°14.706 2°54.612 336.8 11.2 329 8.8
2009-07-08 06:49:42 51°14.722 2°54.597 336.3 11.1 329 9.2
2009-07-08 06:49:47 51°14.735 2°54.584 336.8 11.1 329 9.3
2009-07-08 06:49:52 51°14.748 2°54.571 336.4 11.1 327 8.9
2009-07-08 06:49:57 51°14.761 2°54.558 335.5 11 329 9.2
2009-07-08 06:50:02 51°14.774 2°54.544 335.4 11.2 325 9
2009-07-08 06:50:07 51°14.787 2°54.531 334.7 11.1 326 8.8
2009-07-08 06:50:12 51°14.8 2°54.516 334.1 11.2 325 9
2009-07-08 06:50:16 51°14.81 2°54.505 334.2 11.1 326 9
2009-07-08 06:50:22 51°14.825 2°54.488 334.5 11.2 325 8.8
2009-07-08 06:50:26 51°14.835 2°54.477 334.1 11.2 326 8.9
2009-07-08 06:50:32 51°14.851 2°54.461 334.3 11.1 326 9
2009-07-08 06:50:37 51°14.863 2°54.447 334.2 11 326 8.6
2009-07-08 06:50:42 51°14.876 2°54.434 334 11.1 327 8.9
2009-07-08 06:50:47 51°14.889 2°54.42 334.3 11 326 8.4
2009-07-08 06:50:52 51°14.902 2°54.406 333.9 11 326 8.2
2009-07-08 06:50:57 51°14.914 2°54.393 333.6 11.1 325 8.2
2009-07-08 06:51:01 51°14.925 2°54.382 333.2 11 326 8.2
2009-07-08 06:51:07 51°14.94 2°54.365 332.9 11 325 7.8
2009-07-08 06:51:12 51°14.952 2°54.351 332.4 11 325 7.9
2009-07-08 06:51:17 51°14.965 2°54.338 332.7 11 326 7.9
2009-07-08 06:51:22 51°14.977 2°54.324 332.8 11 326 7.6
2009-07-08 06:51:27 51°14.99 2°54.311 333.2 11 326 7.8
2009-07-08 06:51:32 51°15.002 2°54.297 333.2 10.9 326 7.4
2009-07-08 06:51:36 51°15.012 2°54.286 333 10.9 325 7.5
2009-07-08 06:51:42 51°15.027 2°54.27 333.2 10.8 326 7.2
2009-07-08 06:51:47 51°15.04 2°54.256 333.2 11 325 8.1
2009-07-08 06:51:52 51°15.052 2°54.243 333.1 10.9 325 5.5
2009-07-08 06:51:57 51°15.065 2°54.228 332.7 10.9 325 7.7
2009-07-08 06:52:01 51°15.074 2°54.217 332.7 10.9 325 7.3
2009-07-08 06:52:07 51°15.089 2°54.201 333.3 10.9 325 7.4
2009-07-08 06:52:12 51°15.102 2°54.187 333.3 10.9 325 7.9
2009-07-08 06:52:17 51°15.114 2°54.173 333.2 10.9 326 7.6
2009-07-08 06:52:21 51°15.124 2°54.162 333.4 10.9 325 7.8
2009-07-08 06:52:27 51°15.139 2°54.146 333.7 10.9 325 7.9
2009-07-08 06:52:32 51°15.151 2°54.131 333.2 11 323 8.1
2009-07-08 06:52:37 51°15.164 2°54.117 332.8 10.9 325 7.9
2009-07-08 06:52:42 51°15.176 2°54.103 332.5 11 324 8.3
2009-07-08 06:52:47 51°15.188 2°54.089 332.1 10.9 325 8.3
2009-07-08 06:52:52 51°15.201 2°54.075 332.8 11 324 8.2
2009-07-08 06:52:57 51°15.213 2°54.06 332.4 11 324 8
2009-07-08 06:53:02 51°15.225 2°54.046 332.6 11 324 8.1
2009-07-08 06:53:07 51°15.238 2°54.032 331.8 11 323 8.1
2009-07-08 06:53:12 51°15.25 2°54.017 331.8 11 324 8.3
2009-07-08 06:53:17 51°15.262 2°54.003 332.2 11 324 8.1
2009-07-08 06:53:21 51°15.272 2°53.992 332.9 11 325 8.4
2009-07-08 06:53:27 51°15.287 2°53.975 332.6 11.1 324 8.6
2009-07-08 06:53:32 51°15.3 2°53.961 332.8 11 326 8.4
2009-07-08 06:53:37 51°15.312 2°53.947 333.2 11.1 324 8.6
2009-07-08 06:53:41 51°15.323 2°53.936 333.4 11.2 325 8.8
2009-07-08 06:53:47 51°15.338 2°53.918 333 11.1 325 8.7
2009-07-08 06:53:52 51°15.35 2°53.905 333.2 11 326 9
2009-07-08 06:53:57 51°15.363 2°53.892 334 10.9 326 8.8
2009-07-08 06:54:01 51°15.373 2°53.88 333.6 10.9 325 8.7
2009-07-08 06:54:07 51°15.388 2°53.865 333.6 10.9 327 9
2009-07-08 06:54:12 51°15.4 2°53.851 334.2 11 325 8.9
2009-07-08 06:54:16 51°15.411 2°53.84 333.9 11 325 9
2009-07-08 06:54:21 51°15.423 2°53.826 333.9 11.1 326 9.2
2009-07-08 06:54:27 51°15.438 2°53.809 334 11.1 325 9.1
2009-07-08 06:54:32 51°15.451 2°53.795 334 11.2 326 9.4
2009-07-08 06:54:37 51°15.464 2°53.781 333.7 11.1 325 9.2
2009-07-08 06:54:41 51°15.474 2°53.77 334 11.2 327 9.8
2009-07-08 06:54:47 51°15.489 2°53.753 334.4 11.2 324 9.5
2009-07-08 06:54:52 51°15.502 2°53.739 333.9 11.3 325 9.9
2009-07-08 06:54:57 51°15.515 2°53.724 333.4 11.2 325 9.7
2009-07-08 06:55:02 51°15.528 2°53.71 333.6 11.2 326 9.8
2009-07-08 06:55:07 51°15.54 2°53.696 333.5 11.1 325 9.9
2009-07-08 06:55:12 51°15.552 2°53.681 332.8 11.2 322 9.9
2009-07-08 06:55:17 51°15.565 2°53.667 332.3 11.1 325 9.9
2009-07-08 06:55:21 51°15.575 2°53.655 333.2 11.1 324 9.8
2009-07-08 06:55:27 51°15.59 2°53.638 333.1 11.1 326 10.5
2009-07-08 06:55:32 51°15.602 2°53.625 334 10.9 325 9.9
2009-07-08 06:55:37 51°15.615 2°53.61 333.8 11 323 10.3
2009-07-08 06:55:42 51°15.627 2°53.596 333.4 11.1 325 10.2
2009-07-08 06:55:47 51°15.639 2°53.581 333.2 11.1 324 10.5
2009-07-08 06:55:52 51°15.652 2°53.567 333.3 11.1 324 10
2009-07-08 06:55:57 51°15.665 2°53.552 333.1 11.2 324 10.3
2009-07-08 06:56:01 51°15.675 2°53.541 332.8 11.3 323 10.4
2009-07-08 06:56:07 51°15.69 2°53.523 332.7 11.3 323 10.7
2009-07-08 06:56:12 51°15.702 2°53.508 332.6 11.3 324 10.4
2009-07-08 06:56:17 51°15.715 2°53.493 333.1 11.2 325 10.4
2009-07-08 06:56:21 51°15.725 2°53.482 333.3 11.2 325 10.6
2009-07-08 06:56:27 51°15.741 2°53.465 334.4 11.2 327 10.4
2009-07-08 06:56:32 51°15.754 2°53.451 335.4 11.2 326 10.4
2009-07-08 06:56:36 51°15.764 2°53.44 335.2 11.2 327 10.5
2009-07-08 06:56:41 51°15.777 2°53.426 335.6 11.2 326 10.6
2009-07-08 06:56:47 51°15.792 2°53.41 335.7 11.1 327 10.7
2009-07-08 06:56:52 51°15.805 2°53.396 335.7 11.1 327 10.6
2009-07-08 06:56:57 51°15.818 2°53.383 335.8 11 327 10.8
2009-07-08 06:57:01 51°15.829 2°53.373 336.5 11.1 327 10.9
2009-07-08 06:57:07 51°15.844 2°53.356 336 11.2 325 11.1
2009-07-08 06:57:12 51°15.857 2°53.342 335.4 11.2 326 10.6
2009-07-08 06:57:17 51°15.87 2°53.328 335.2 11.2 326 10.9
2009-07-08 06:57:21 51°15.88 2°53.318 335.3 11.2 328 11
2009-07-08 06:57:27 51°15.896 2°53.301 335.7 11.3 327 11.3
2009-07-08 06:57:32 51°15.909 2°53.288 336.4 11.2 329 11.2
2009-07-08 06:57:37 51°15.922 2°53.276 337.6 11.2 329 11.3
2009-07-08 06:57:42 51°15.936 2°53.263 337.9 11.3 330 11.3
2009-07-08 06:57:47 51°15.949 2°53.251 338.5 11 331 10.9
2009-07-08 06:57:52 51°15.963 2°53.24 339.6 11.1 331 11.2
2009-07-08 06:57:57 51°15.976 2°53.227 339.4 11.1 330 10.7
2009-07-08 06:58:02 51°15.989 2°53.215 339.5 11.1 330 11
2009-07-08 06:58:07 51°16.002 2°53.203 339.6 11 330 11
2009-07-08 06:58:12 51°16.016 2°53.191 340.2 11.1 331 11.5
2009-07-08 06:58:16 51°16.027 2°53.181 339.6 11.1 330 11
2009-07-08 06:58:21 51°16.04 2°53.169 339.8 11.1 331 11.6
2009-07-08 06:58:27 51°16.056 2°53.154 339.7 11.1 331 11
2009-07-08 06:58:32 51°16.07 2°53.143 339.9 11.1 331 11.4
2009-07-08 06:58:36 51°16.081 2°53.133 339.7 11.2 330 11.2
2009-07-08 06:58:42 51°16.097 2°53.119 339.3 11.2 330 11.3
2009-07-08 06:58:47 51°16.11 2°53.106 339.2 11.1 331 11.3
2009-07-08 06:58:52 51°16.124 2°53.094 339.4 11.2 331 11.3
2009-07-08 06:58:57 51°16.138 2°53.082 339.4 11.2 331 11.2
2009-07-08 06:59:01 51°16.148 2°53.072 339.2 11.1 330 10.9
2009-07-08 06:59:07 51°16.165 2°53.058 340 11.1 332 11.6
2009-07-08 06:59:12 51°16.178 2°53.046 339.9 11.1 331 11.2
2009-07-08 06:59:17 51°16.192 2°53.035 339.6 11.1 331 10.9
2009-07-08 06:59:21 51°16.203 2°53.026 339.8 11.1 333 11.4
2009-07-08 06:59:27 51°16.219 2°53.012 340.9 11.1 332 11
2009-07-08 06:59:32 51°16.233 2°53.001 340.6 11.1 333 11.1
2009-07-08 06:59:37 51°16.246 2°52.99 341.3 11.1 333 11
2009-07-08 06:59:42 51°16.26 2°52.979 341.5 11.2 333 11.1
2009-07-08 06:59:47 51°16.274 2°52.968 341.4 11.1 334 11
2009-07-08 06:59:52 51°16.288 2°52.958 341.9 11.1 336 11.4
2009-07-08 06:59:57 51°16.302 2°52.947 342.9 11.2 334 11.2
2009-07-08 07:00:01 51°16.313 2°52.939 342.7 11.1 335 11
2009-07-08 07:00:07 51°16.33 2°52.926 343.6 11.1 335 11.2
2009-07-08 07:00:12 51°16.344 2°52.916 343.5 11.2 336 11.5
2009-07-08 07:00:17 51°16.358 2°52.907 343.9 11.1 337 11.1
2009-07-08 07:00:21 51°16.369 2°52.899 344.5 11.1 337 11.4
2009-07-08 07:00:27 51°16.387 2°52.888 345.7 11.1 337 11.4
2009-07-08 07:00:32 51°16.401 2°52.878 345.4 11.2 337 11.2
2009-07-08 07:00:36 51°16.412 2°52.87 345.2 11.2 337 11.1
2009-07-08 07:00:42 51°16.43 2°52.86 346.1 11.1 340 11
2009-07-08 07:00:47 51°16.444 2°52.852 347.5 11 341 11.2
2009-07-08 07:00:52 51°16.459 2°52.844 348.2 11.1 342 11.5
2009-07-08 07:00:57 51°16.474 2°52.837 349.5 11 343 11.3
2009-07-08 07:01:01 51°16.485 2°52.832 350.2 11 343 11
2009-07-08 07:01:07 51°16.503 2°52.823 350.8 10.9 343 11
2009-07-08 07:01:12 51°16.517 2°52.816 350.7 10.9 343 10.7
2009-07-08 07:01:17 51°16.532 2°52.809 350.9 10.9 343 11.1
2009-07-08 07:01:21 51°16.543 2°52.803 351.4 10.9 345 11.2
2009-07-08 07:01:27 51°16.561 2°52.795 351.9 10.8 345 11.1
2009-07-08 07:01:32 51°16.575 2°52.788 351.9 10.8 344 10.5
2009-07-08 07:01:37 51°16.59 2°52.783 352.7 10.9 346 10.7
2009-07-08 07:01:42 51°16.604 2°52.777 353.1 10.9 345 10.8
2009-07-08 07:01:47 51°16.619 2°52.771 353.3 10.9 346 10.7
2009-07-08 07:01:52 51°16.634 2°52.765 353.2 11 345 10.5
2009-07-08 07:01:57 51°16.648 2°52.759 353.2 10.9 346 10.2
2009-07-08 07:02:01 51°16.66 2°52.754 353.3 10.9 346 10.2
2009-07-08 07:02:07 51°16.678 2°52.748 354.2 11 347 10.4
2009-07-08 07:02:12 51°16.693 2°52.743 354.3 10.9 348 9.9
2009-07-08 07:02:17 51°16.708 2°52.738 354.8 11 348 9.7
2009-07-08 07:02:21 51°16.719 2°52.734 354.5 10.8 350 9.7
2009-07-08 07:02:27 51°16.737 2°52.729 355.1 10.8 350 9.6
2009-07-08 07:02:32 51°16.752 2°52.724 354.8 10.9 348 9.4
2009-07-08 07:02:37 51°16.767 2°52.72 354.7 10.8 349 8.9
2009-07-08 07:02:42 51°16.781 2°52.715 354.4 10.8 348 9.2
2009-07-08 07:02:47 51°16.796 2°52.71 354.3 10.8 350 9.6
2009-07-08 07:02:52 51°16.811 2°52.706 355 10.7 349 8.8
2009-07-08 07:02:57 51°16.825 2°52.702 355.1 10.7 350 9
2009-07-08 07:03:01 51°16.837 2°52.697 355 10.6 347 8.6
2009-07-08 07:03:07 51°16.854 2°52.692 354.3 10.8 350 9
2009-07-08 07:03:12 51°16.869 2°52.687 355 10.7 349 9.2
2009-07-08 07:03:17 51°16.883 2°52.683 355.1 10.6 350 8.4
2009-07-08 07:03:21 51°16.895 2°52.681 356 10.5 349 9
2009-07-08 07:03:27 51°16.912 2°52.676 356.2 10.5 351 8.7
2009-07-08 07:03:32 51°16.926 2°52.673 356.9 10.6 351 8.9
2009-07-08 07:03:37 51°16.941 2°52.669 357.2 10.6 351 9.5
2009-07-08 07:03:41 51°16.953 2°52.667 357.9 10.5 353 9.3
2009-07-08 07:03:47 51°16.97 2°52.662 357.8 10.6 351 9.3
2009-07-08 07:03:52 51°16.985 2°52.659 357.9 10.7 353 9.5
2009-07-08 07:03:57 51°16.999 2°52.656 358.5 10.6 353 9.6
2009-07-08 07:04:02 51°17.014 2°52.653 358.1 10.6 351 9
2009-07-08 07:04:07 51°17.029 2°52.65 358.6 10.7 353 9.6
2009-07-08 07:04:12 51°17.043 2°52.647 358.1 10.6 353 9.3
2009-07-08 07:04:17 51°17.058 2°52.643 358.1 10.7 351 9.3
2009-07-08 07:04:21 51°17.069 2°52.641 358.5 10.6 354 9.2
2009-07-08 07:04:27 51°17.087 2°52.637 358.9 10.6 352 8.9
2009-07-08 07:04:32 51°17.102 2°52.635 359.4 10.6 354 8.9
2009-07-08 07:04:37 51°17.116 2°52.633 0.1 10.6 354 9
2009-07-08 07:04:42 51°17.131 2°52.634 2.5 10.6 2 8.7
2009-07-08 07:04:47 51°17.145 2°52.632 3.7 10.5 357 8.7
2009-07-08 07:04:52 51°17.16 2°52.636 7.3 10.4 8 9
2009-07-08 07:04:57 51°17.174 2°52.637 9.5 10.4 4 9
2009-07-08 07:05:01 51°17.185 2°52.641 12.2 10.3 10 9
2009-07-08 07:05:07 51°17.202 2°52.648 16.4 10.3 15 8.8
2009-07-08 07:05:12 51°17.215 2°52.656 19.4 10.2 21 9.7
2009-07-08 07:05:17 51°17.228 2°52.663 21.1 10.2 20 9.4
2009-07-08 07:05:21 51°17.238 2°52.671 26.2 10.3 24 8.9
2009-07-08 07:05:27 51°17.254 2°52.682 26.2 10.2 24 9.2
2009-07-08 07:05:32 51°17.267 2°52.693 27.7 10.2 32 9.4
2009-07-08 07:05:36 51°17.276 2°52.702 33.1 10.1 32 9.1
2009-07-08 07:05:41 51°17.288 2°52.714 34.9 10.1 35 9.3
2009-07-08 07:05:47 51°17.301 2°52.731 38.2 10.1 37 8.9
2009-07-08 07:05:52 51°17.312 2°52.746 41.8 10.2 44 8.6
2009-07-08 07:05:57 51°17.321 2°52.762 43.5 10.1 44 9.4
2009-07-08 07:06:01 51°17.329 2°52.775 46.7 10.1 51 9.3
2009-07-08 07:06:07 51°17.34 2°52.795 49.4 10.2 42 9.5
2009-07-08 07:06:12 51°17.35 2°52.811 47.2 10.1 50 9.1
2009-07-08 07:06:17 51°17.358 2°52.83 53.7 10.2 54 9.1
2009-07-08 07:06:21 51°17.366 2°52.842 51.2 10.2 46 9.1
2009-07-08 07:06:27 51°17.375 2°52.865 53.6 10.2 56 9.3
2009-07-08 07:06:32 51°17.385 2°52.881 52.2 10.2 52 9
2009-07-08 07:06:37 51°17.393 2°52.901 54.5 10.3 55 9.4
2009-07-08 07:06:42 51°17.402 2°52.919 53.9 10.2 53 8.9
2009-07-08 07:06:47 51°17.41 2°52.938 55.2 10.5 55 8.8
2009-07-08 07:06:52 51°17.418 2°52.956 55.8 10.4 52 9.2
2009-07-08 07:06:57 51°17.427 2°52.975 54 10.3 56 9.2
2009-07-08 07:07:02 51°17.434 2°52.994 56.8 10.4 56 8.9
2009-07-08 07:07:07 51°17.443 2°53.012 55.6 10.2 51 9
2009-07-08 07:07:12 51°17.451 2°53.032 55.8 10.5 58 9.2
2009-07-08 07:07:17 51°17.46 2°53.049 55.6 10.3 49 8.9
2009-07-08 07:07:21 51°17.466 2°53.065 56.1 10.3 60 8.9
2009-07-08 07:07:27 51°17.476 2°53.086 56.2 10.3 48 8.9
2009-07-08 07:07:32 51°17.485 2°53.105 54.3 10.3 56 9.1
2009-07-08 07:07:36 51°17.492 2°53.119 54.8 10.2 50 8.7
2009-07-08 07:07:42 51°17.501 2°53.142 55.1 10.4 55 9.4
2009-07-08 07:07:47 51°17.512 2°53.156 48 10 47 8.8
2009-07-08 07:07:52 51°17.52 2°53.175 51.7 10.1 54 9
2009-07-08 07:07:57 51°17.531 2°53.19 50.1 10.1 45 9.2
2009-07-08 07:08:01 51°17.538 2°53.204 49.4 10.1 49 8.8
2009-07-08 07:08:07 51°17.549 2°53.224 50.4 10 45 8.9
2009-07-08 07:08:12 51°17.559 2°53.24 48 10.1 47 9
2009-07-08 07:08:17 51°17.568 2°53.256 49.3 10.1 45 8.9
2009-07-08 07:08:21 51°17.576 2°53.268 48 10 46 8.7
2009-07-08 07:08:27 51°17.588 2°53.288 48.9 10.1 45 9
2009-07-08 07:08:32 51°17.597 2°53.305 48.7 10.2 52 9.1
2009-07-08 07:08:37 51°17.607 2°53.32 48.9 10 41 8.9
2009-07-08 07:08:42 51°17.616 2°53.337 48.2 10.1 50 8.7
2009-07-08 07:08:47 51°17.626 2°53.353 48.1 10 44 9
2009-07-08 07:08:52 51°17.635 2°53.369 48 9.9 48 8.8
2009-07-08 07:08:57 51°17.644 2°53.386 50.6 10 52 9.1
2009-07-08 07:09:02 51°17.654 2°53.402 49.1 10 45 9
2009-07-08 07:09:07 51°17.662 2°53.42 50.2 10 52 8.8
2009-07-08 07:09:12 51°17.671 2°53.436 51.9 10.1 44 8.9
2009-07-08 07:09:17 51°17.68 2°53.453 49.9 10.1 55 9.2
2009-07-08 07:09:22 51°17.689 2°53.471 53.6 10 50 9.2
2009-07-08 07:09:27 51°17.698 2°53.487 50.2 10 49 9.2
2009-07-08 07:09:32 51°17.707 2°53.504 52 10 53 9.1
2009-07-08 07:09:37 51°17.716 2°53.52 49.9 10 47 9
2009-07-08 07:09:42 51°17.724 2°53.538 51.8 10.1 54 9
2009-07-08 07:09:47 51°17.734 2°53.554 51.7 10 47 8.9
2009-07-08 07:09:52 51°17.742 2°53.572 52.4 10.1 54 9
2009-07-08 07:09:56 51°17.75 2°53.585 51.5 10.1 51 9.2
2009-07-08 07:10:01 51°17.759 2°53.602 51.6 10 47 8.8
2009-07-08 07:10:07 51°17.769 2°53.624 52.4 10.1 54 9.2
2009-07-08 07:10:12 51°17.779 2°53.639 50.1 9.9 44 8.7
2009-07-08 07:10:16 51°17.786 2°53.653 51.1 10.1 53 9.2
2009-07-08 07:10:21 51°17.795 2°53.669 50.2 10.1 45 8.9
2009-07-08 07:10:27 51°17.806 2°53.69 50.6 9.9 51 9
2009-07-08 07:10:32 51°17.815 2°53.706 50.5 10.1 48 9.1
2009-07-08 07:10:36 51°17.822 2°53.72 51 10.1 49 9
2009-07-08 07:10:41 51°17.832 2°53.736 50.7 10 49 9.3
2009-07-08 07:10:47 51°17.842 2°53.757 50.9 10 51 9.1
2009-07-08 07:10:52 51°17.851 2°53.774 51.8 10.2 49 9.2
2009-07-08 07:10:56 51°17.859 2°53.786 49.4 10 47 9
2009-07-08 07:11:01 51°17.868 2°53.805 51.6 10.1 53 9.3
2009-07-08 07:11:06 51°17.877 2°53.82 50.9 10.1 47 9.1
2009-07-08 07:11:11 51°17.886 2°53.838 51.6 10 52 9.1
2009-07-08 07:11:17 51°17.897 2°53.857 50.8 10 46 8.9
2009-07-08 07:11:21 51°17.904 2°53.872 52.2 10.1 51 8.8
2009-07-08 07:11:27 51°17.915 2°53.892 51.6 9.9 51 9.1
2009-07-08 07:11:31 51°17.922 2°53.905 51 9.9 47 9.4
2009-07-08 07:11:37 51°17.932 2°53.926 51.6 10 54 9.2
2009-07-08 07:11:41 51°17.94 2°53.939 50.8 9.9 49 9
2009-07-08 07:11:45 51°17.946 2°53.953 52.2 9.9 48 8.8
2009-07-08 07:11:51 51°17.958 2°53.972 49.5 10 52 9.3
2009-07-08 07:11:57 51°17.968 2°53.993 52.1 10 50 8.9
2009-07-08 07:12:02 51°17.977 2°54.009 51.2 9.9 47 9.1
2009-07-08 07:12:07 51°17.986 2°54.026 50.6 9.8 53 9
2009-07-08 07:12:11 51°17.993 2°54.04 51.5 10 47 8.8
2009-07-08 07:12:17 51°18.004 2°54.059 50.8 9.9 49 9
2009-07-08 07:12:21 51°18.011 2°54.073 51.5 9.8 52 9.4
2009-07-08 07:12:27 51°18.021 2°54.093 52.5 9.9 47 9
2009-07-08 07:12:31 51°18.028 2°54.107 52.3 10 53 9.2
2009-07-08 07:12:37 51°18.038 2°54.128 53 9.9 51 8.9
2009-07-08 07:12:41 51°18.044 2°54.143 55.2 10 55 9.1
2009-07-08 07:12:46 51°18.054 2°54.159 52.8 10 50 9.3
2009-07-08 07:12:51 51°18.06 2°54.179 56.7 10 61 8.9
2009-07-08 07:12:57 51°18.07 2°54.2 57.4 10 53 9.1
2009-07-08 07:13:01 51°18.076 2°54.215 57.1 9.8 59 9.3
2009-07-08 07:13:06 51°18.082 2°54.235 60.9 10 63 9.1
2009-07-08 07:13:11 51°18.09 2°54.253 59.3 10 53 9.2
2009-07-08 07:13:17 51°18.099 2°54.275 57.5 9.8 60 9
2009-07-08 07:13:21 51°18.103 2°54.291 61.7 9.9 61 9
2009-07-08 07:13:26 51°18.111 2°54.31 60.3 10.1 60 9.3
2009-07-08 07:13:31 51°18.118 2°54.329 59.6 9.8 58 9.1
2009-07-08 07:13:36 51°18.124 2°54.348 63.2 10 67 9
2009-07-08 07:13:41 51°18.131 2°54.368 62.2 10 57 9.4
2009-07-08 07:13:47 51°18.139 2°54.391 59.9 9.8 65 4.7
2009-07-08 07:13:53 51°18.146 2°54.414 65.3 10 64 9.1
2009-07-08 07:13:57 51°18.153 2°54.428 60.7 9.8 54 9
2009-07-08 07:14:01 51°18.157 2°54.443 59.6 9.7 64 9.2
2009-07-08 07:14:07 51°18.164 2°54.467 64.2 9.9 64 8.8
2009-07-08 07:14:11 51°18.17 2°54.482 62.9 9.9 58 8.9
2009-07-08 07:14:17 51°18.177 2°54.506 61.1 9.9 63 9.4
2009-07-08 07:14:21 51°18.183 2°54.521 62 9.8 62 9.4
2009-07-08 07:14:27 51°18.191 2°54.544 61.7 9.9 59 9
2009-07-08 07:14:31 51°18.197 2°54.558 60.9 9.8 62 9.2
2009-07-08 07:14:37 51°18.203 2°54.583 62.5 9.9 63 9.2
2009-07-08 07:14:41 51°18.21 2°54.597 60.4 9.8 57 8.9
2009-07-08 07:14:47 51°18.216 2°54.622 64.3 10.1 68 9.1
2009-07-08 07:14:52 51°18.224 2°54.639 62.5 9.9 55 9.4
2009-07-08 07:14:57 51°18.23 2°54.659 61 9.9 66 9.1
2009-07-08 07:15:01 51°18.236 2°54.674 61.1 9.9 57 9
2009-07-08 07:15:07 51°18.245 2°54.696 59.5 10.1 62 9
2009-07-08 07:15:11 51°18.251 2°54.711 59.3 9.9 54 9.2
2009-07-08 07:15:17 51°18.26 2°54.733 58.1 9.8 60 9.2
2009-07-08 07:15:21 51°18.266 2°54.748 59.6 10 55 8.8
2009-07-08 07:15:27 51°18.276 2°54.769 57.2 10 55 9.3
2009-07-08 07:15:33 51°18.284 2°54.792 56.7 10 60 9.2
2009-07-08 07:15:37 51°18.291 2°54.806 57.4 10 51 9.1
2009-07-08 07:15:41 51°18.297 2°54.82 55.8 9.9 53 8.9
2009-07-08 07:15:47 51°18.306 2°54.842 57.7 9.9 54 9.2
2009-07-08 07:15:51 51°18.312 2°54.857 56.1 10.1 59 9.5
2009-07-08 07:15:57 51°18.323 2°54.876 53.1 9.7 48 9.4
2009-07-08 07:16:01 51°18.329 2°54.891 55.2 10 62 9.4
2009-07-08 07:16:07 51°18.339 2°54.912 57.4 9.9 47 8.8
2009-07-08 07:16:11 51°18.345 2°54.926 53.7 9.8 56 9.4
2009-07-08 07:16:17 51°18.355 2°54.947 54.6 9.8 55 9.3
2009-07-08 07:16:21 51°18.361 2°54.962 56.5 9.8 51 9.2
2009-07-08 07:16:27 51°18.371 2°54.981 53.5 9.7 53 8.9
2009-07-08 07:16:31 51°18.377 2°54.997 56.8 9.9 57 9.4
2009-07-08 07:16:37 51°18.388 2°55.015 53.6 9.8 46 9.1
2009-07-08 07:16:41 51°18.393 2°55.031 56.1 9.7 61 9.6
2009-07-08 07:16:47 51°18.403 2°55.052 55.7 9.8 53 9.7
2009-07-08 07:16:51 51°18.409 2°55.066 55.9 9.7 55 9.1
2009-07-08 07:16:57 51°18.418 2°55.087 57.4 9.7 54 9.1
2009-07-08 07:17:01 51°18.425 2°55.101 54.4 9.9 53 9.6
2009-07-08 07:17:07 51°18.435 2°55.122 54 9.8 52 9
2009-07-08 07:17:11 51°18.44 2°55.137 56.8 10 57 9.5
2009-07-08 07:17:17 51°18.452 2°55.155 51.6 9.8 44 9.3
2009-07-08 07:17:21 51°18.458 2°55.17 52.9 9.9 57 9.5
2009-07-08 07:17:27 51°18.469 2°55.19 53.7 10 48 9.8
2009-07-08 07:17:31 51°18.475 2°55.204 53.4 9.8 57 9.3
2009-07-08 07:17:37 51°18.485 2°55.225 56.6 9.9 50 9.3
2009-07-08 07:17:41 51°18.492 2°55.238 52.4 9.9 48 9.4
2009-07-08 07:17:47 51°18.501 2°55.261 54 10.1 57 9.6
2009-07-08 07:17:52 51°18.511 2°55.276 53.9 9.9 46 9.6
2009-07-08 07:17:57 51°18.519 2°55.294 52.3 9.9 56 9.7
2009-07-08 07:18:01 51°18.525 2°55.308 54.6 9.9 53 9.4
2009-07-08 07:18:07 51°18.535 2°55.329 54.6 9.9 56 9.3
2009-07-08 07:18:13 51°18.545 2°55.349 55.5 9.9 50 9.4
2009-07-08 07:18:17 51°18.551 2°55.364 55 10 57 9.5
2009-07-08 07:18:21 51°18.557 2°55.379 56.8 9.9 53 9.5
2009-07-08 07:18:27 51°18.567 2°55.399 55.2 9.9 54 9.3
2009-07-08 07:18:31 51°18.574 2°55.414 55.6 10 53 9.3
2009-07-08 07:18:37 51°18.584 2°55.434 55.4 9.8 54 9.6
2009-07-08 07:18:41 51°18.59 2°55.449 56.5 9.9 57 9.5
2009-07-08 07:18:47 51°18.6 2°55.47 56 9.9 49 9.3
2009-07-08 07:18:52 51°18.607 2°55.488 55.3 9.9 59 9.8
2009-07-08 07:18:57 51°18.616 2°55.506 56.8 9.8 52 10
2009-07-08 07:19:01 51°18.623 2°55.518 53.6 9.8 53 9.7
2009-07-08 07:19:07 51°18.632 2°55.541 57.6 9.9 55 9.7
2009-07-08 07:19:11 51°18.64 2°55.553 53.1 9.8 48 9.5
2009-07-08 07:19:17 51°18.648 2°55.575 53.6 9.9 57 9.6
2009-07-08 07:19:21 51°18.656 2°55.588 53.8 9.7 51 9.5
2009-07-08 07:19:27 51°18.666 2°55.608 55 9.7 52 9.3
2009-07-08 07:19:32 51°18.674 2°55.626 54.4 9.9 54 9.8
2009-07-08 07:19:37 51°18.682 2°55.643 54.1 9.7 52 9.5
2009-07-08 07:19:41 51°18.688 2°55.658 56.6 9.9 57 9.8
2009-07-08 07:19:47 51°18.698 2°55.678 54.7 9.8 51 9.7
2009-07-08 07:19:53 51°18.708 2°55.701 56.8 10 57 9.8
2009-07-08 07:19:57 51°18.715 2°55.713 54.7 9.8 50 9.5
2009-07-08 07:20:01 51°18.72 2°55.729 56.7 10 59 9.4
2009-07-08 07:20:07 51°18.731 2°55.748 54.7 9.9 49 9.5
2009-07-08 07:20:12 51°18.738 2°55.768 56 9.8 59 9.5
2009-07-08 07:20:17 51°18.747 2°55.784 57 9.8 49 9.3
2009-07-08 07:20:21 51°18.752 2°55.799 54.6 9.8 56 9.7
2009-07-08 07:20:27 51°18.762 2°55.82 55.1 9.7 55 9.5
2009-07-08 07:20:31 51°18.768 2°55.835 57.7 9.8 53 9.4
2009-07-08 07:20:37 51°18.779 2°55.854 54.6 9.8 51 9.5
2009-07-08 07:20:41 51°18.785 2°55.869 54.9 9.8 57 9.5
2009-07-08 07:20:47 51°18.795 2°55.889 54.5 9.8 49 9.7
2009-07-08 07:20:51 51°18.801 2°55.904 55.3 9.8 59 9.5
2009-07-08 07:20:57 51°18.811 2°55.924 56.5 9.8 51 9.6
2009-07-08 07:21:01 51°18.818 2°55.938 54.1 9.7 54 10
2009-07-08 07:21:07 51°18.826 2°55.96 56.7 9.8 56 10
2009-07-08 07:21:11 51°18.834 2°55.973 56 9.8 50 9.6
2009-07-08 07:21:17 51°18.843 2°55.994 54.5 9.7 53 9.7
2009-07-08 07:21:21 51°18.849 2°56.009 56.6 9.8 58 9.6
2009-07-08 07:21:27 51°18.86 2°56.029 55.6 10 51 9.6
2009-07-08 07:21:31 51°18.866 2°56.043 55 9.8 55 9.6
2009-07-08 07:21:37 51°18.875 2°56.065 56.7 9.9 58 9.7
2009-07-08 07:21:41 51°18.882 2°56.078 54.1 9.8 47 9.5
2009-07-08 07:21:47 51°18.891 2°56.099 54.3 9.8 59 9.7
2009-07-08 07:21:51 51°18.897 2°56.113 56.7 9.8 51 9.6
2009-07-08 07:21:57 51°18.908 2°56.132 53.2 9.7 50 9.4
2009-07-08 07:22:01 51°18.913 2°56.148 55.9 9.8 60 9.8
2009-07-08 07:22:07 51°18.924 2°56.167 54.6 9.8 50 9.8
2009-07-08 07:22:13 51°18.934 2°56.188 54.5 9.7 53 9.9
2009-07-08 07:22:16 51°18.938 2°56.199 54.9 9.8 56 9.7
2009-07-08 07:22:22 51°18.949 2°56.219 54.7 9.8 53 9.6
2009-07-08 07:22:27 51°18.957 2°56.236 53.1 9.8 51 9.6
2009-07-08 07:22:32 51°18.965 2°56.254 54.1 9.8 55 9.7
2009-07-08 07:22:37 51°18.974 2°56.27 53.8 9.8 49 9.6
2009-07-08 07:22:42 51°18.981 2°56.288 54.9 9.9 57 9.6
2009-07-08 07:22:47 51°18.99 2°56.305 55.7 9.8 52 9.8
2009-07-08 07:22:52 51°18.998 2°56.323 54.2 9.9 55 9.8
2009-07-08 07:22:57 51°19.006 2°56.34 55.5 9.8 55 9.4
2009-07-08 07:23:02 51°19.014 2°56.359 57.6 10 56 9.6
2009-07-08 07:23:07 51°19.023 2°56.375 54.3 9.8 47 9.6
2009-07-08 07:23:12 51°19.03 2°56.394 54.2 9.8 59 9.9
2009-07-08 07:23:17 51°19.038 2°56.411 56 9.9 52 9.8
2009-07-08 07:23:22 51°19.047 2°56.428 53.9 9.8 51 9.8
2009-07-08 07:23:27 51°19.054 2°56.446 54.3 9.7 57 9.4
2009-07-08 07:23:32 51°19.062 2°56.463 56.5 9.8 52 9.6
2009-07-08 07:23:37 51°19.071 2°56.48 53.1 9.7 52 9.6
2009-07-08 07:23:42 51°19.078 2°56.498 56.9 9.7 56 9.4
2009-07-08 07:23:47 51°19.087 2°56.513 53.7 9.7 47 9.4
2009-07-08 07:23:52 51°19.094 2°56.533 54.5 9.9 60 9.7
2009-07-08 07:23:57 51°19.103 2°56.548 55.7 10 48 9.3
2009-07-08 07:24:01 51°19.109 2°56.563 54.4 9.8 54 8.9
2009-07-08 07:24:07 51°19.118 2°56.584 56.6 9.8 57 9.4
2009-07-08 07:24:12 51°19.126 2°56.601 55.4 9.8 52 9.5
2009-07-08 07:24:17 51°19.134 2°56.619 53.9 9.7 54 9.6
2009-07-08 07:24:22 51°19.142 2°56.637 54.9 9.7 56 9.4
2009-07-08 07:24:27 51°19.15 2°56.654 57.2 9.8 53 9.6
2009-07-08 07:24:32 51°19.159 2°56.67 53.1 9.7 50 9.4
2009-07-08 07:24:37 51°19.166 2°56.689 55 9.8 57 9.9
2009-07-08 07:24:42 51°19.175 2°56.705 54.5 9.8 50 9.7
2009-07-08 07:24:47 51°19.182 2°56.724 56.1 9.8 58 9.8
2009-07-08 07:24:52 51°19.19 2°56.741 56 9.8 56 9.6
2009-07-08 07:24:57 51°19.198 2°56.759 56.9 9.8 52 9.6
2009-07-08 07:25:01 51°19.204 2°56.773 55.3 9.8 56 9.3
2009-07-08 07:25:07 51°19.213 2°56.795 57.1 9.8 56 9.9
2009-07-08 07:25:12 51°19.222 2°56.811 54.3 9.7 51 9.5
2009-07-08 07:25:17 51°19.228 2°56.831 58.2 9.9 58 9.8
2009-07-08 07:25:21 51°19.236 2°56.843 55.2 9.7 47 9.7
2009-07-08 07:25:27 51°19.244 2°56.866 56.4 9.7 60 9.4
2009-07-08 07:25:32 51°19.253 2°56.882 56.7 9.8 50 9.6
2009-07-08 07:25:37 51°19.259 2°56.901 56.4 9.8 60 9.5
2009-07-08 07:25:42 51°19.268 2°56.918 56.4 9.8 52 9.7
2009-07-08 07:25:47 51°19.275 2°56.936 55.5 9.8 56 9.7
2009-07-08 07:25:52 51°19.283 2°56.953 55.6 9.7 55 9.5
2009-07-08 07:25:57 51°19.291 2°56.972 57.1 10 57 9.7
2009-07-08 07:26:02 51°19.3 2°56.988 54.3 9.7 50 9.8
2009-07-08 07:26:07 51°19.306 2°57.008 56.2 10 64 9.7
2009-07-08 07:26:12 51°19.315 2°57.024 56.8 9.8 43 9.7
2009-07-08 07:26:17 51°19.323 2°57.041 52.1 9.8 61 9.5
2009-07-08 07:26:21 51°19.329 2°57.056 56.9 9.7 52 9.4
2009-07-08 07:26:27 51°19.34 2°57.075 53 9.7 54 9.4
2009-07-08 07:26:32 51°19.347 2°57.093 55 9.8 55 9.4
2009-07-08 07:26:37 51°19.356 2°57.109 53.4 9.8 49 9.1
2009-07-08 07:26:42 51°19.363 2°57.128 55.9 9.9 56 9.5
2009-07-08 07:26:47 51°19.372 2°57.144 53.9 9.9 52 9.2
2009-07-08 07:26:52 51°19.38 2°57.163 55.2 9.9 57 9.6
2009-07-08 07:26:57 51°19.388 2°57.18 55.1 9.8 49 9.7
2009-07-08 07:27:02 51°19.396 2°57.198 54.3 9.8 58 9.6
2009-07-08 07:27:07 51°19.405 2°57.215 55.8 9.9 49 9.6
2009-07-08 07:27:12 51°19.413 2°57.231 53 9.7 53 9.5
2009-07-08 07:27:17 51°19.421 2°57.249 56 9.8 52 9.4
2009-07-08 07:27:22 51°19.43 2°57.266 53.8 9.9 50 9.8
2009-07-08 07:27:27 51°19.437 2°57.283 53.3 9.7 55 9.5
2009-07-08 07:27:32 51°19.445 2°57.301 56 9.9 54 9.8
2009-07-08 07:27:37 51°19.454 2°57.317 53.1 9.7 49 9.8
2009-07-08 07:27:42 51°19.462 2°57.335 53 9.7 55 9.3
2009-07-08 07:27:47 51°19.47 2°57.353 55.3 9.9 53 9.8
2009-07-08 07:27:52 51°19.478 2°57.37 54.7 9.8 56 9.7
2009-07-08 07:27:57 51°19.485 2°57.388 56.7 9.7 55 10
2009-07-08 07:28:02 51°19.494 2°57.404 53.4 9.7 51 9.6
2009-07-08 07:28:07 51°19.501 2°57.423 56.6 9.9 57 9.7
2009-07-08 07:28:12 51°19.51 2°57.44 56.6 9.9 52 9.4
2009-07-08 07:28:17 51°19.518 2°57.457 54.8 9.6 53 9.2
2009-07-08 07:28:22 51°19.525 2°57.476 57.2 9.9 58 9.7
2009-07-08 07:28:27 51°19.534 2°57.492 54.6 9.8 51 9.6
2009-07-08 07:28:32 51°19.54 2°57.511 56.3 9.7 61 9.5
2009-07-08 07:28:37 51°19.548 2°57.529 57.8 9.8 57 9.7
2009-07-08 07:28:42 51°19.554 2°57.548 60.1 9.8 62 9.7
2009-07-08 07:28:47 51°19.56 2°57.567 61 9.8 62 9.9
2009-07-08 07:28:52 51°19.566 2°57.587 62.1 9.8 66 9.7
2009-07-08 07:28:57 51°19.573 2°57.606 63.8 9.7 59 9.5
2009-07-08 07:29:01 51°19.578 2°57.621 64.2 9.9 69 9.8
2009-07-08 07:29:07 51°19.585 2°57.645 64.7 9.9 61 9.8
2009-07-08 07:29:12 51°19.589 2°57.666 64.8 10 72 9.6
2009-07-08 07:29:17 51°19.596 2°57.685 66.9 9.9 58 9.7
2009-07-08 07:29:21 51°19.601 2°57.7 62.1 9.7 61 9.1
2009-07-08 07:29:27 51°19.606 2°57.724 66.1 9.8 70 9.4
2009-07-08 07:29:32 51°19.613 2°57.743 65.5 9.8 62 9.7
2009-07-08 07:29:37 51°19.618 2°57.764 65 9.9 71 9.5
2009-07-08 07:29:42 51°19.624 2°57.783 66.4 9.9 61 9.5
2009-07-08 07:29:47 51°19.629 2°57.803 65.4 9.9 73 9.8
2009-07-08 07:29:52 51°19.634 2°57.823 68 9.8 65 9.5
2009-07-08 07:29:57 51°19.641 2°57.843 65 9.8 68 9.4
2009-07-08 07:30:02 51°19.645 2°57.863 67.7 9.9 68 9.6
2009-07-08 07:30:07 51°19.651 2°57.883 65.9 9.7 66 9.7
2009-07-08 07:30:12 51°19.656 2°57.903 66.1 9.9 69 9.7
2009-07-08 07:30:17 51°19.662 2°57.922 66.1 9.8 61 9.7
2009-07-08 07:30:22 51°19.668 2°57.942 63.9 9.7 66 9.5
2009-07-08 07:30:27 51°19.673 2°57.962 66.5 9.8 65 9.2
2009-07-08 07:30:32 51°19.68 2°57.981 64.3 9.9 65 9.4
2009-07-08 07:30:37 51°19.685 2°58.001 65.1 9.8 65 9.6
2009-07-08 07:30:41 51°19.689 2°58.017 66.6 9.9 68 9.7
2009-07-08 07:30:47 51°19.696 2°58.041 65.3 9.9 63 9.7
2009-07-08 07:30:52 51°19.702 2°58.06 64.4 9.7 67 9.6
2009-07-08 07:30:57 51°19.706 2°58.08 68 9.7 69 9.5
2009-07-08 07:31:01 51°19.712 2°58.095 64.5 9.8 59 9.5
2009-07-08 07:31:07 51°19.717 2°58.12 65.5 9.8 71 9.9
2009-07-08 07:31:12 51°19.723 2°58.139 66.5 9.5 66 9.4
2009-07-08 07:31:17 51°19.729 2°58.158 66.8 9.5 64 9.6
2009-07-08 07:31:22 51°19.734 2°58.177 64.8 9.5 68 9.7
2009-07-08 07:31:27 51°19.74 2°58.197 67.2 9.7 66 9.3
2009-07-08 07:31:32 51°19.745 2°58.216 66.8 9.7 64 9.2
2009-07-08 07:31:37 51°19.751 2°58.236 66.2 9.6 66 9.4
2009-07-08 07:31:42 51°19.756 2°58.255 65.6 9.6 65 9.2
2009-07-08 07:31:47 51°19.761 2°58.275 66.8 9.8 68 9.5
2009-07-08 07:31:52 51°19.767 2°58.294 66 9.6 65 9.3
2009-07-08 07:31:57 51°19.772 2°58.315 67.3 9.8 67 9.1
2009-07-08 07:32:02 51°19.778 2°58.334 66.2 9.8 62 9.2
2009-07-08 07:32:07 51°19.782 2°58.354 66.3 9.6 71 9.6
2009-07-08 07:32:12 51°19.788 2°58.373 67.1 9.6 67 9.2
2009-07-08 07:32:17 51°19.793 2°58.393 67.6 9.7 61 9.4
2009-07-08 07:32:21 51°19.799 2°58.407 63.7 9.6 65 9.6
2009-07-08 07:32:27 51°19.803 2°58.432 67.3 9.6 69 9.7
2009-07-08 07:32:32 51°19.81 2°58.45 66 9.5 63 9.2
2009-07-08 07:32:37 51°19.815 2°58.471 66.8 9.6 68 9.3
2009-07-08 07:32:42 51°19.822 2°58.489 64.4 9.6 62 9.3
2009-07-08 07:32:47 51°19.825 2°58.51 68.3 9.6 67 9.3
2009-07-08 07:32:52 51°19.832 2°58.528 65.6 9.5 63 9.6
2009-07-08 07:32:57 51°19.836 2°58.547 65.8 9.5 68 9.3
2009-07-08 07:33:01 51°19.84 2°58.563 68.1 9.6 66 9.5
2009-07-08 07:33:07 51°19.848 2°58.585 63 9.4 63 9.6
2009-07-08 07:33:12 51°19.853 2°58.605 66.1 9.5 69 9.3
2009-07-08 07:33:17 51°19.859 2°58.624 65.7 9.6 64 9.2
2009-07-08 07:33:22 51°19.865 2°58.642 63.6 9.5 62 9.3
2009-07-08 07:33:27 51°19.87 2°58.662 66.9 9.5 70 9.1
2009-07-08 07:33:32 51°19.875 2°58.681 67.3 9.6 65 9.1
2009-07-08 07:33:37 51°19.882 2°58.699 63.8 9.4 62 9
2009-07-08 07:33:42 51°19.885 2°58.72 65.4 9.5 73 9.2
2009-07-08 07:33:47 51°19.891 2°58.739 68.3 9.6 66 9.2
2009-07-08 07:33:52 51°19.897 2°58.758 66.9 9.5 62 9.1
2009-07-08 07:33:57 51°19.902 2°58.777 65.2 9.5 68 9.2
2009-07-08 07:34:01 51°19.906 2°58.792 66.1 9.5 66 9.3
2009-07-08 07:34:07 51°19.912 2°58.816 67.3 9.6 65 9.1
2009-07-08 07:34:11 51°19.917 2°58.831 64.7 9.6 63 9.2
2009-07-08 07:34:17 51°19.924 2°58.854 64.7 9.6 67 9.1
2009-07-08 07:34:22 51°19.929 2°58.874 66.1 9.7 65 9.2
2009-07-08 07:34:27 51°19.935 2°58.893 64.5 9.6 65 9.4
2009-07-08 07:34:32 51°19.941 2°58.912 66.1 9.4 65 9.2
2009-07-08 07:34:37 51°19.946 2°58.932 65.7 9.9 69 9.5
2009-07-08 07:34:42 51°19.953 2°58.95 64.6 9.6 59 9.1
2009-07-08 07:34:47 51°19.958 2°58.969 63.4 9.4 64 8.9
2009-07-08 07:34:52 51°19.963 2°58.989 65.6 9.6 68 9.3
2009-07-08 07:34:57 51°19.97 2°59.007 64.6 9.6 60 8.9
2009-07-08 07:35:02 51°19.975 2°59.027 64.7 9.5 67 8.8
2009-07-08 07:35:07 51°19.981 2°59.045 65 9.5 65 9.1
2009-07-08 07:35:12 51°19.986 2°59.065 65.7 9.6 65 9.2
2009-07-08 07:35:17 51°19.992 2°59.084 65 9.5 65 9.2
2009-07-08 07:35:22 51°19.997 2°59.103 64.7 9.5 66 9.2
2009-07-08 07:35:27 51°20.003 2°59.123 67 9.6 66 9.1
2009-07-08 07:35:32 51°20.009 2°59.141 65 9.5 61 9
2009-07-08 07:35:37 51°20.014 2°59.161 65 9.7 70 9
2009-07-08 07:35:41 51°20.019 2°59.176 66.3 9.6 61 9.3
2009-07-08 07:35:47 51°20.026 2°59.199 64 9.6 67 9.4
2009-07-08 07:35:52 51°20.031 2°59.218 66.1 9.6 63 9.5
2009-07-08 07:35:57 51°20.038 2°59.236 63.3 9.4 67 9.1
2009-07-08 07:36:02 51°20.042 2°59.257 67 9.6 69 9.1
2009-07-08 07:36:07 51°20.048 2°59.276 66.4 9.7 62 9.3
2009-07-08 07:36:12 51°20.053 2°59.295 65 9.4 70 9.4
2009-07-08 07:36:17 51°20.059 2°59.313 65.1 9.3 61 9.3
2009-07-08 07:36:21 51°20.064 2°59.328 64 9.5 64 9.1
2009-07-08 07:36:27 51°20.071 2°59.352 65.1 9.6 65 9.1
2009-07-08 07:36:32 51°20.076 2°59.371 64.9 9.5 64 9.2
2009-07-08 07:36:37 51°20.081 2°59.389 64 9.4 64 9.2
2009-07-08 07:36:42 51°20.088 2°59.408 64 9.5 63 9.1
2009-07-08 07:36:47 51°20.093 2°59.427 65.1 9.6 66 9.2
2009-07-08 07:36:52 51°20.098 2°59.447 64.8 9.6 65 9.1
2009-07-08 07:36:57 51°20.104 2°59.465 64.7 9.6 62 9.1
2009-07-08 07:37:02 51°20.11 2°59.484 63.8 9.4 66 8.9
2009-07-08 07:37:07 51°20.115 2°59.504 67.9 9.6 64 9
2009-07-08 07:37:12 51°20.122 2°59.522 63.5 9.4 58 9.1
2009-07-08 07:37:17 51°20.127 2°59.541 62.7 9.4 67 9
2009-07-08 07:37:22 51°20.133 2°59.56 65.2 9.5 62 9.2
2009-07-08 07:37:27 51°20.138 2°59.579 64.7 9.4 68 9.2
2009-07-08 07:37:32 51°20.145 2°59.596 64.3 9.3 58 9.2
2009-07-08 07:37:37 51°20.149 2°59.616 64.5 9.6 69 9.4
2009-07-08 07:37:42 51°20.156 2°59.635 65.6 9.5 60 9.2
2009-07-08 07:37:47 51°20.16 2°59.654 64.8 9.5 72 9.3
2009-07-08 07:37:52 51°20.166 2°59.672 65.8 9.5 58 9.3
2009-07-08 07:37:57 51°20.171 2°59.692 63.9 9.5 71 9.4
2009-07-08 07:38:01 51°20.175 2°59.707 67.4 9.4 66 9.5
2009-07-08 07:38:07 51°20.183 2°59.729 64.9 9.4 65 9.4
2009-07-08 07:38:12 51°20.187 2°59.749 65.9 9.6 71 9.8
2009-07-08 07:38:17 51°20.194 2°59.767 64.4 9.5 60 9.4
2009-07-08 07:38:22 51°20.198 2°59.787 64.6 9.5 69 9.5
2009-07-08 07:38:27 51°20.205 2°59.805 65.4 9.4 61 9.1
2009-07-08 07:38:32 51°20.21 2°59.824 64.7 9.6 68 9.3
2009-07-08 07:38:37 51°20.216 2°59.843 65 9.5 64 9.5
2009-07-08 07:38:42 51°20.221 2°59.862 64.6 9.4 64 9.2
2009-07-08 07:38:47 51°20.226 2°59.882 66.2 9.5 68 9.5
2009-07-08 07:38:52 51°20.233 2°59.9 63.1 9.5 59 9.4
2009-07-08 07:38:57 51°20.238 2°59.919 64.1 9.5 66 9.2
2009-07-08 07:39:02 51°20.244 2°59.939 65.9 9.6 65 9.5
2009-07-08 07:39:07 51°20.25 2°59.957 64.1 9.4 63 9.5
2009-07-08 07:39:12 51°20.254 2°59.977 66.5 9.5 70 9.7
2009-07-08 07:39:17 51°20.26 2°59.995 64.7 9.4 62 9.8
2009-07-08 07:39:22 51°20.265 3°0.014 64.3 9.3 67 9.6
2009-07-08 07:39:27 51°20.27 3°0.033 66.9 9.4 67 9.6
2009-07-08 07:39:32 51°20.277 3°0.051 64.8 9.4 60 9.4
2009-07-08 07:39:37 51°20.281 3°0.071 65.1 9.4 72 9.7
2009-07-08 07:39:41 51°20.285 3°0.086 66.5 9.5 66 9.3
2009-07-08 07:39:47 51°20.292 3°0.109 65.8 9.5 63 9.2
2009-07-08 07:39:52 51°20.297 3°0.127 64.3 9.1 67 9.5
2009-07-08 07:39:57 51°20.301 3°0.147 68.3 9.4 69 9.6
2009-07-08 07:40:02 51°20.309 3°0.165 65.4 9.5 57 9.5
2009-07-08 07:40:07 51°20.313 3°0.184 64.4 9.4 70 9.4
2009-07-08 07:40:12 51°20.318 3°0.203 66.1 9.3 63 9.3
2009-07-08 07:40:17 51°20.324 3°0.221 64.5 9.3 64 9.5
2009-07-08 07:40:21 51°20.328 3°0.236 64.5 9.2 68 9.4
2009-07-08 07:40:27 51°20.333 3°0.26 67.6 9.5 65 9.9
2009-07-08 07:40:32 51°20.341 3°0.277 63.1 9.2 59 -999
2009-07-08 07:40:37 51°20.344 3°0.297 66.7 9.5 75 9.2
2009-07-08 07:40:42 51°20.351 3°0.315 66.9 9.4 59 9.7
2009-07-08 07:40:47 51°20.356 3°0.333 62.4 9.1 64 9.7
2009-07-08 07:40:52 51°20.361 3°0.352 64 9.3 68 9.5
2009-07-08 07:40:57 51°20.367 3°0.37 65.7 9.4 62 9.4
2009-07-08 07:41:02 51°20.373 3°0.389 64 9.3 63 9.4
2009-07-08 07:41:07 51°20.378 3°0.408 64.9 9.4 66 9.5
2009-07-08 07:41:12 51°20.384 3°0.427 65.4 9.5 63 9.5
2009-07-08 07:41:17 51°20.39 3°0.445 63.5 9.2 66 9.4
2009-07-08 07:41:22 51°20.394 3°0.465 65.9 9.4 70 9.7
2009-07-08 07:41:27 51°20.401 3°0.482 65.4 9.5 59 9.5
2009-07-08 07:41:32 51°20.405 3°0.502 64.2 9.4 69 9.4
2009-07-08 07:41:37 51°20.411 3°0.521 66.5 9.3 61 9.5
2009-07-08 07:41:42 51°20.417 3°0.538 64.4 9.1 64 9.3
2009-07-08 07:41:47 51°20.421 3°0.558 67.6 9.4 70 9.5
2009-07-08 07:41:52 51°20.426 3°0.577 66.3 9.4 65 9.5
2009-07-08 07:41:57 51°20.432 3°0.595 63.6 9.3 64 9.4
2009-07-08 07:42:02 51°20.436 3°0.615 67 9.4 70 9.4
2009-07-08 07:42:07 51°20.443 3°0.633 65.1 9.3 60 9.4
2009-07-08 07:42:12 51°20.447 3°0.652 65.4 9.4 71 9.5
2009-07-08 07:42:17 51°20.454 3°0.67 66.1 9.4 60 9.8
2009-07-08 07:42:22 51°20.459 3°0.689 64.3 9.2 68 9.5
2009-07-08 07:42:27 51°20.463 3°0.708 68.2 9.4 66 9.5
2009-07-08 07:42:32 51°20.469 3°0.728 65 9.4 68 9.6
2009-07-08 07:42:37 51°20.474 3°0.745 64.3 9.1 66 9.2
2009-07-08 07:42:42 51°20.477 3°0.766 69.3 9.3 71 9.7
2009-07-08 07:42:47 51°20.485 3°0.782 64.7 9.2 59 9.5
2009-07-08 07:42:52 51°20.488 3°0.802 65.7 9.3 72 9.9
2009-07-08 07:42:57 51°20.495 3°0.819 65.4 9.1 60 9.8
2009-07-08 07:43:01 51°20.499 3°0.835 66.6 9.3 72 9.5
2009-07-08 07:43:07 51°20.505 3°0.857 66.9 9.3 60 9.4
2009-07-08 07:43:12 51°20.51 3°0.877 64.9 9.3 71 9.4
2009-07-08 07:43:17 51°20.515 3°0.895 66.7 9.2 59 9.4
2009-07-08 07:43:22 51°20.521 3°0.913 63.5 9.3 66 9.7
2009-07-08 07:43:27 51°20.525 3°0.932 65.7 9.3 69 9.3
2009-07-08 07:43:32 51°20.531 3°0.951 66.9 9.3 64 9.5
2009-07-08 07:43:37 51°20.537 3°0.969 63 9.2 62 9.3
2009-07-08 07:43:42 51°20.541 3°0.989 66.4 9.5 72 9.5
2009-07-08 07:43:47 51°20.548 3°1.006 65.4 9.3 60 9.5
2009-07-08 07:43:52 51°20.552 3°1.025 63.9 9.2 69 9.4
2009-07-08 07:43:58 51°20.559 3°1.047 66.8 9.3 62 9.5
2009-07-08 07:44:02 51°20.563 3°1.062 64.2 9.2 66 9.3
2009-07-08 07:44:07 51°20.569 3°1.081 66.1 9.4 62 9.2
2009-07-08 07:44:12 51°20.574 3°1.1 63.2 9.3 65 9.4
2009-07-08 07:44:17 51°20.579 3°1.119 64.9 9.3 68 9.4
2009-07-08 07:44:22 51°20.584 3°1.138 66.9 9.5 67 9.3
2009-07-08 07:44:26 51°20.59 3°1.152 64.7 9.3 60 9.5
2009-07-08 07:44:32 51°20.595 3°1.175 65.6 9.3 71 9.6
2009-07-08 07:44:37 51°20.601 3°1.194 67.4 9.3 63 9.2
2009-07-08 07:44:42 51°20.605 3°1.212 65.7 9.2 69 9.6
2009-07-08 07:44:47 51°20.611 3°1.231 66.3 9.3 66 9.5
2009-07-08 07:44:51 51°20.615 3°1.246 65.6 9.2 65 9.5
2009-07-08 07:44:57 51°20.621 3°1.269 66.9 9.3 69 9.4
2009-07-08 07:45:02 51°20.627 3°1.287 65.9 9.4 62 9.3
2009-07-08 07:45:07 51°20.632 3°1.306 63.9 9.2 64 9.4
2009-07-08 07:45:12 51°20.637 3°1.325 66.1 9.3 68 9.6
2009-07-08 07:45:17 51°20.644 3°1.343 64.4 9.4 60 9.5
2009-07-08 07:45:22 51°20.649 3°1.362 63.4 9.3 65 9.5
2009-07-08 07:45:27 51°20.654 3°1.381 66 9.4 66 9.8
2009-07-08 07:45:32 51°20.66 3°1.399 64.2 9.4 63 9.5
2009-07-08 07:45:37 51°20.666 3°1.418 64.7 9.4 61 9.3
2009-07-08 07:45:42 51°20.67 3°1.437 64.5 9.5 71 9.6
2009-07-08 07:45:47 51°20.676 3°1.456 67.6 9.4 66 9.4
2009-07-08 07:45:52 51°20.682 3°1.474 63.8 9.2 64 9.3
2009-07-08 07:45:57 51°20.686 3°1.494 66.9 9.5 67 9.8
2009-07-08 07:46:02 51°20.692 3°1.512 64 9.4 65 9.8
2009-07-08 07:46:07 51°20.697 3°1.531 66.6 9.3 68 9.4
2009-07-08 07:46:12 51°20.703 3°1.55 66.1 9.3 63 9.4
2009-07-08 07:46:17 51°20.708 3°1.569 65.7 9.3 68 9.5
2009-07-08 07:46:22 51°20.714 3°1.587 65.2 9.1 62 9.2
2009-07-08 07:46:27 51°20.718 3°1.606 67.1 9.3 71 9.5
2009-07-08 07:46:32 51°20.725 3°1.623 64 9 58 9.7
2009-07-08 07:46:37 51°20.728 3°1.641 65.4 8.9 70 9.7
2009-07-08 07:46:42 51°20.734 3°1.659 66.8 8.9 64 9.8
2009-07-08 07:46:47 51°20.739 3°1.676 64.5 8.8 63 9.5
2009-07-08 07:46:52 51°20.745 3°1.693 65.6 8.6 64 9.1
2009-07-08 07:46:57 51°20.749 3°1.711 66.3 8.7 67 9.5
2009-07-08 07:47:02 51°20.755 3°1.727 62.9 8.5 60 9.5
2009-07-08 07:47:07 51°20.76 3°1.745 65.3 8.7 68 9.6
2009-07-08 07:47:11 51°20.765 3°1.758 63.6 8.6 60 9.7
2009-07-08 07:47:17 51°20.77 3°1.78 64.4 8.8 70 9.8
2009-07-08 07:47:22 51°20.776 3°1.796 63.6 8.6 57 9.8
2009-07-08 07:47:27 51°20.781 3°1.813 62.7 8.6 65 9.7
2009-07-08 07:47:31 51°20.785 3°1.827 65.5 8.8 62 9.6
2009-07-08 07:47:37 51°20.791 3°1.849 64.8 9 68 9.6
2009-07-08 07:47:42 51°20.798 3°1.866 64.9 9 58 9.2
2009-07-08 07:47:47 51°20.802 3°1.885 65.4 9.1 66 9.2
2009-07-08 07:47:51 51°20.805 3°1.9 67.5 9.2 64 9.8
2009-07-08 07:47:57 51°20.813 3°1.921 64 9 64 9.6
2009-07-08 07:48:02 51°20.818 3°1.94 66.7 9.3 66 9.2
2009-07-08 07:48:07 51°20.823 3°1.959 65.8 9.3 64 9.3
2009-07-08 07:48:12 51°20.828 3°1.977 67.6 9 70 9.7
2009-07-08 07:48:17 51°20.833 3°1.995 66.4 9.1 64 9.8
2009-07-08 07:48:22 51°20.838 3°2.013 64.7 8.9 64 9.6
2009-07-08 07:48:27 51°20.842 3°2.032 67.6 8.8 70 9.9
2009-07-08 07:48:32 51°20.849 3°2.049 65.6 8.8 62 9.8
2009-07-08 07:48:37 51°20.853 3°2.067 65.6 8.8 67 9.7
2009-07-08 07:48:42 51°20.859 3°2.084 65.8 8.8 61 9.5
2009-07-08 07:48:47 51°20.863 3°2.102 66.4 8.9 68 9.7
2009-07-08 07:48:52 51°20.869 3°2.119 64.9 8.8 62 9.5
2009-07-08 07:48:57 51°20.874 3°2.137 66.1 8.8 67 9.9
2009-07-08 07:49:02 51°20.88 3°2.154 64.9 8.7 64 9.6
2009-07-08 07:49:07 51°20.885 3°2.172 65.4 8.8 66 9.9
2009-07-08 07:49:12 51°20.89 3°2.189 65.2 8.7 65 9.7
2009-07-08 07:49:17 51°20.895 3°2.207 66.1 8.7 65 9.5
2009-07-08 07:49:22 51°20.9 3°2.225 65.8 8.7 66 9.8
2009-07-08 07:49:27 51°20.905 3°2.242 65.4 8.7 65 9.4
2009-07-08 07:49:31 51°20.909 3°2.256 65.9 8.8 69 9.8
2009-07-08 07:49:37 51°20.915 3°2.277 65.9 8.6 63 9.5
2009-07-08 07:49:42 51°20.92 3°2.295 66.2 8.7 66 9.8
2009-07-08 07:49:47 51°20.925 3°2.312 64.7 8.7 63 9.8
2009-07-08 07:49:52 51°20.929 3°2.331 66.9 8.8 70 9.9
2009-07-08 07:49:57 51°20.935 3°2.347 65.9 8.7 62 10
2009-07-08 07:50:02 51°20.94 3°2.365 65.2 8.7 66 10
2009-07-08 07:50:06 51°20.944 3°2.379 65.9 8.8 66 9.7
2009-07-08 07:50:12 51°20.95 3°2.4 66.3 8.7 65 9.9
2009-07-08 07:50:17 51°20.956 3°2.417 64.1 8.6 65 9.9
2009-07-08 07:50:22 51°20.96 3°2.435 67.3 8.8 66 9.8
2009-07-08 07:50:26 51°20.966 3°2.448 63 8.7 57 9.8
2009-07-08 07:50:32 51°20.971 3°2.47 64.3 8.7 70 9.8
2009-07-08 07:50:38 51°20.978 3°2.49 65.3 8.7 60 9.9
2009-07-08 07:50:42 51°20.981 3°2.504 64.4 8.7 69 9.9
2009-07-08 07:50:46 51°20.986 3°2.518 64.7 8.7 61 9.8
2009-07-08 07:50:52 51°20.992 3°2.539 64.8 8.7 66 9.9
2009-07-08 07:50:57 51°20.997 3°2.557 66.8 8.7 64 9.7
2009-07-08 07:51:02 51°21.002 3°2.574 64 8.7 63 9.6
2009-07-08 07:51:07 51°21.007 3°2.592 66 8.7 68 9.8
2009-07-08 07:51:12 51°21.012 3°2.608 66.1 8.7 64 9.7
2009-07-08 07:51:17 51°21.017 3°2.626 63.8 8.6 68 9.6
2009-07-08 07:51:22 51°21.022 3°2.644 66.6 8.9 65 9.8
2009-07-08 07:51:27 51°21.027 3°2.661 65.4 8.6 64 9.6
2009-07-08 07:51:32 51°21.031 3°2.678 64.7 8.6 67 10
2009-07-08 07:51:37 51°21.036 3°2.697 66.8 8.8 67 10
2009-07-08 07:51:42 51°21.042 3°2.713 64 8.5 62 10.1
2009-07-08 07:51:47 51°21.045 3°2.732 66.8 8.6 72 10.3
2009-07-08 07:51:52 51°21.051 3°2.748 64.4 8.6 61 10.2
2009-07-08 07:51:57 51°21.056 3°2.765 63.3 8.5 66 9.8
2009-07-08 07:52:02 51°21.06 3°2.783 66.2 8.7 68 10
2009-07-08 07:52:07 51°21.066 3°2.799 63.9 8.5 61 9.7
2009-07-08 07:52:11 51°21.07 3°2.814 63.4 8.5 69 10
2009-07-08 07:52:17 51°21.075 3°2.834 64.4 8.6 63 10.2
2009-07-08 07:52:22 51°21.08 3°2.851 64 8.4 68 10.1
2009-07-08 07:52:27 51°21.085 3°2.868 63.7 8.6 65 9.9
2009-07-08 07:52:31 51°21.089 3°2.882 64.3 8.5 66 10
2009-07-08 07:52:37 51°21.094 3°2.904 66.5 8.6 70 10.1
2009-07-08 07:52:42 51°21.1 3°2.92 64.6 8.6 62 10.2
2009-07-08 07:52:47 51°21.104 3°2.938 64 8.4 67 10.1
2009-07-08 07:52:52 51°21.108 3°2.956 68 8.5 71 10.2
2009-07-08 07:52:57 51°21.114 3°2.971 63.2 8.5 59 10.3
2009-07-08 07:53:02 51°21.118 3°2.99 64.4 8.5 73 9.9
2009-07-08 07:53:07 51°21.123 3°3.006 66 8.6 62 10
2009-07-08 07:53:12 51°21.128 3°3.024 64.5 8.6 67 9.9
2009-07-08 07:53:17 51°21.132 3°3.041 65 8.5 68 9.8
2009-07-08 07:53:22 51°21.136 3°3.059 66.6 8.6 70 10
2009-07-08 07:53:27 51°21.142 3°3.076 63.6 8.6 62 10.1
2009-07-08 07:53:32 51°21.145 3°3.094 66.5 8.6 71 10.2
2009-07-08 07:53:37 51°21.151 3°3.111 65.9 8.6 64 9.8
2009-07-08 07:53:42 51°21.155 3°3.129 65.6 8.7 66 10
2009-07-08 07:53:47 51°21.16 3°3.147 65.5 8.6 65 10.1
2009-07-08 07:53:52 51°21.164 3°3.165 66.9 8.7 67 9.9
2009-07-08 07:53:57 51°21.169 3°3.182 65.5 8.7 68 9.7
2009-07-08 07:54:02 51°21.174 3°3.2 65.3 8.7 65 10.2
2009-07-08 07:54:07 51°21.178 3°3.218 66 8.6 68 10
2009-07-08 07:54:12 51°21.183 3°3.236 67 8.6 67 10.4
2009-07-08 07:54:17 51°21.188 3°3.252 63.2 8.4 65 10.3
2009-07-08 07:54:22 51°21.191 3°3.271 67.8 8.7 73 10.3
2009-07-08 07:54:26 51°21.196 3°3.284 64.7 8.5 61 9.8
2009-07-08 07:54:32 51°21.201 3°3.305 65.8 8.4 70 10.3
2009-07-08 07:54:37 51°21.206 3°3.322 66.9 8.5 64 10.2
2009-07-08 07:54:42 51°21.211 3°3.339 64 8.3 65 9.9
2009-07-08 07:54:46 51°21.214 3°3.353 65.6 8.4 71 10.2
2009-07-08 07:54:52 51°21.22 3°3.373 65.2 8.4 64 10
2009-07-08 07:54:57 51°21.225 3°3.39 64.4 8.3 66 10.1
2009-07-08 07:55:02 51°21.229 3°3.407 64.6 8.2 67 9.9
2009-07-08 07:55:06 51°21.232 3°3.42 66.1 8 69 9.9
2009-07-08 07:55:12 51°21.238 3°3.438 63.5 7.5 64 10.3
2009-07-08 07:55:17 51°21.241 3°3.453 65.2 7.5 70 10.2
2009-07-08 07:55:22 51°21.246 3°3.468 65.4 7.2 65 10.3
2009-07-08 07:55:26 51°21.248 3°3.479 65.3 7.1 69 10.1
2009-07-08 07:55:32 51°21.253 3°3.496 65.1 7 65 10
2009-07-08 07:55:37 51°21.256 3°3.51 64.7 6.8 69 10.3
2009-07-08 07:55:42 51°21.261 3°3.524 64.9 6.9 64 9.8
2009-07-08 07:55:46 51°21.263 3°3.535 65.8 6.8 71 10.2
2009-07-08 07:55:52 51°21.267 3°3.552 64.7 6.6 68 10.2
2009-07-08 07:55:57 51°21.27 3°3.565 65.2 6.6 68 10.3
2009-07-08 07:56:02 51°21.273 3°3.579 64.7 6.5 69 10.2
2009-07-08 07:56:07 51°21.277 3°3.591 63.8 6.6 64 9.9
2009-07-08 07:56:12 51°21.281 3°3.605 65.5 6.4 68 10.3
2009-07-08 07:56:17 51°21.284 3°3.618 64.6 6.4 69 10.5
2009-07-08 07:56:22 51°21.287 3°3.631 65 6.3 64 10.3
2009-07-08 07:56:27 51°21.29 3°3.644 64 6.3 73 10.7
2009-07-08 07:56:32 51°21.294 3°3.657 64.9 6.2 66 10.6
2009-07-08 07:56:37 51°21.297 3°3.669 65.1 6.2 67 10.2
2009-07-08 07:56:42 51°21.301 3°3.682 64.1 6.3 65 10.3
2009-07-08 07:56:46 51°21.303 3°3.692 65 6.2 71 10.4
2009-07-08 07:56:52 51°21.307 3°3.708 63.9 6.2 69 10.5
2009-07-08 07:56:57 51°21.311 3°3.72 64 6.2 68 10.3
2009-07-08 07:57:02 51°21.314 3°3.733 65.6 6.3 67 10
2009-07-08 07:57:06 51°21.316 3°3.744 66.4 6.2 70 10.1
2009-07-08 07:57:12 51°21.319 3°3.759 65.7 6.3 71 10.4
2009-07-08 07:57:16 51°21.323 3°3.769 64.8 6.2 69 10.7
2009-07-08 07:57:22 51°21.326 3°3.785 65.8 6.3 69 10.3
2009-07-08 07:57:26 51°21.328 3°3.795 65.9 6.3 67 10
2009-07-08 07:57:32 51°21.332 3°3.811 65.4 6.3 72 10.4
2009-07-08 07:57:37 51°21.336 3°3.823 64.4 6.2 63 10.2
2009-07-08 07:57:42 51°21.338 3°3.837 65.5 6.3 74 10.4
2009-07-08 07:57:46 51°21.342 3°3.847 65.6 6.3 63 10.4
2009-07-08 07:57:52 51°21.344 3°3.863 65.7 6.4 72 10.2
2009-07-08 07:57:57 51°21.348 3°3.875 64.9 6.2 65 10.5
2009-07-08 07:58:02 51°21.351 3°3.888 64.8 6.3 70 10.6
2009-07-08 07:58:06 51°21.354 3°3.899 65 6.3 67 10.6
2009-07-08 07:58:12 51°21.358 3°3.914 64.4 6.3 65 10.2
2009-07-08 07:58:17 51°21.361 3°3.927 65.2 6.3 68 10
2009-07-08 07:58:22 51°21.364 3°3.94 64.4 6.2 67 10.3
2009-07-08 07:58:26 51°21.367 3°3.95 64.3 6.2 70 10.7
2009-07-08 07:58:32 51°21.371 3°3.965 64 6.2 65 10.5
2009-07-08 07:58:37 51°21.373 3°3.978 65.4 6.3 72 10.2
2009-07-08 07:58:42 51°21.377 3°3.99 64.9 6.1 68 10.2
2009-07-08 07:58:47 51°21.379 3°4.003 64.8 6 73 10.8
2009-07-08 07:58:52 51°21.383 3°4.016 64.7 6.1 65 10.4
2009-07-08 07:58:57 51°21.385 3°4.028 64.8 6.1 71 10.5
2009-07-08 07:59:02 51°21.389 3°4.041 64 6 68 10.6
2009-07-08 07:59:07 51°21.392 3°4.053 64.8 6.1 67 10.8
2009-07-08 07:59:12 51°21.395 3°4.065 64.7 6.1 68 10.8
2009-07-08 07:59:17 51°21.398 3°4.078 65.1 6.1 67 10.7
2009-07-08 07:59:22 51°21.401 3°4.091 64 6.1 71 11
2009-07-08 07:59:27 51°21.404 3°4.103 65 6.2 71 10.8